Weather History for EDQM - November, 2012

Change the Weather History Date:

Friday, November 2, 2012

  Actual Average Record
Temperature  
Mean Temperature 42 °F -  
Max Temperature 46 °F 45 °F 58 °F (2014)
Min Temperature 39 °F 36 °F 23 °F (2006)
Degree Days  
Heating Degree Days 22    
Moisture  
Dew Point 35 °F    
Average Humidity 75    
Maximum Humidity 93    
Minimum Humidity 49    
Precipitation  
Precipitation 0.00 in - - ()
Sea Level Pressure  
Sea Level Pressure 29.54 in    
Wind  
Wind Speed 13 mph ()    
Max Wind Speed 21 mph    
Max Gust Speed 31 mph    
Visibility 6.2 miles    
Events Rain    
Averages and records for this station are not official NWS values.
T = Trace of Precipitation, MM = Missing Value Source: Averaged Metar Reports

Daily Weather History Graph

Daily Weather History Graph

Search for Another Location

Airport or City:

Trip Planner

Search our weather history database for the weather conditions in past years. The results will help you decide how hot, cold, wet, or windy it might be!

Date:

Astronomy

Nov. 02, 2012 Rise Set
Actual Time 7:05 AM CET 4:46 PM CET
Civil Twilight 6:30 AM CET 5:20 PM CET
Nautical Twilight 5:52 AM CET 5:59 PM CET
Astronomical Twilight 5:14 AM CET 6:36 PM CET
Moon 7:05 PM CET (11/2) 10:26 AM CET (11/2)
Length of Visible Light 10h 50m
Length of Day
9h 41m
Waning Gibbous, 89% of the Moon is Illuminated
Nov 2
Waning Gibbous
Nov 7
Last Quarter
Nov 13
New
Nov 20
First Quarter
Nov 28
Full

Hourly Weather History & Observations

Time (CET) Temp. Windchill Dew Point Humidity Pressure Visibility Wind Dir Wind Speed Gust Speed Precip Events Conditions
12:00 AM 44 °F - 40 °F 81% 29.37 in 9 mi South 6.7 mph - - Rain Rain
12:20 AM 44.6 °F 40.2 °F 39.2 °F 81% 29.36 in 6.2 mi South 8.1 mph - N/A Rain Light Rain Showers
12:50 AM 42.8 °F 35.8 °F 39.2 °F 87% 29.36 in 3.7 mi SSW 13.8 mph - N/A Rain Rain Showers
1:00 AM 44 °F - 41 °F 83% 29.39 in 3 mi SSW 8.9 mph - - Rain Heavy Rain
1:20 AM 42.8 °F 35.4 °F 39.2 °F 87% 29.36 in 6.2 mi SSW 15.0 mph - N/A Rain Light Rain Showers
1:50 AM 42.8 °F 34.0 °F 37.4 °F 81% 29.39 in 6.2 mi SSW 20.7 mph - N/A   Mostly Cloudy
2:00 AM 43 °F - 40 °F 84% 29.42 in 12 mi SSW 13.4 mph - - Rain Light Rain
2:20 AM 42.8 °F 35.1 °F 37.4 °F 81% 29.39 in 6.2 mi SSW 16.1 mph - N/A Rain Light Rain Showers
2:50 AM 42.8 °F 34.3 °F 37.4 °F 81% 29.42 in 6.2 mi SW 19.6 mph - N/A   Overcast
3:00 AM 42 °F - 39 °F 84% 29.45 in 34 mi SW 11.2 mph - - Rain Rain
3:20 AM 41.0 °F 32.8 °F 35.6 °F 81% 29.44 in 6.2 mi SW 16.1 mph - N/A Rain Light Rain
3:50 AM 41.0 °F 34.7 °F 35.6 °F 81% 29.44 in 6.2 mi SW 10.4 mph - N/A Rain Light Rain Showers
4:20 AM 41.0 °F 32.2 °F 33.8 °F 76% 29.44 in 6.2 mi SW 18.4 mph 29.9 mph N/A   Mostly Cloudy
4:50 AM 41.0 °F 32.2 °F 33.8 °F 76% 29.44 in 6.2 mi SW 18.4 mph - N/A   Scattered Clouds
5:00 AM 40 °F - 36 °F 81% 29.49 in 34 mi SW 15.7 mph - -  
5:20 AM 41.0 °F 31.9 °F 33.8 °F 76% 29.47 in 6.2 mi SW 19.6 mph 31.1 mph N/A   Mostly Cloudy
5:50 AM 39.2 °F 30.2 °F 33.8 °F 81% 29.47 in 6.2 mi SW 17.3 mph - N/A   Mostly Cloudy
6:00 AM 40 °F - 36 °F 81% 29.52 in 12 mi SW 17.9 mph - - Rain Light Rain
6:20 AM 39.2 °F 29.6 °F 33.8 °F 81% 29.47 in 6.2 mi SSW 19.6 mph - N/A   Mostly Cloudy
6:50 AM 39.2 °F 30.5 °F 33.8 °F 81% 29.50 in 6.2 mi SW 16.1 mph - N/A   Mostly Cloudy
7:00 AM 39 °F - 36 °F 83% 29.56 in 31 mi SW 13.4 mph - - Rain Light Rain
7:20 AM 39.2 °F 30.5 °F 33.8 °F 81% 29.53 in 6.2 mi SW 16.1 mph - N/A   Scattered Clouds
7:50 AM 39.2 °F 30.2 °F 32.0 °F 75% 29.56 in 6.2 mi SSW 17.3 mph - N/A   Mostly Cloudy
8:00 AM 40 °F - 35 °F 75% 29.59 in 37 mi SSW 13.4 mph - -   Mostly Cloudy
8:20 AM 39.2 °F 30.5 °F 32.0 °F 75% 29.56 in 6.2 mi SSW 16.1 mph - N/A   Mostly Cloudy
8:50 AM 39.2 °F 30.2 °F 33.8 °F 81% 29.56 in 6.2 mi SSW 17.3 mph - N/A   Scattered Clouds
9:00 AM 40 °F - 35 °F 78% 29.60 in 31 mi SSW 11.2 mph - -   Scattered Clouds
9:20 AM 39.2 °F 30.5 °F 33.8 °F 81% 29.56 in 6.2 mi SSW 16.1 mph - N/A   Mostly Cloudy
9:50 AM 41.0 °F 32.8 °F 33.8 °F 76% 29.59 in 6.2 mi SSW 16.1 mph - N/A   Mostly Cloudy
10:20 AM 41.0 °F 32.5 °F 32.0 °F 70% 29.59 in 6.2 mi SW 17.3 mph - N/A   Mostly Cloudy
10:50 AM 41.0 °F 31.9 °F 32.0 °F 70% 29.59 in 6.2 mi SW 19.6 mph - N/A   Scattered Clouds
11:00 AM 42 °F - 34 °F 65% 29.64 in 31 mi SW 15.7 mph - -   Partly Cloudy
11:20 AM 41.0 °F 32.2 °F 32.0 °F 70% 29.59 in 6.2 mi SW 18.4 mph - N/A   Mostly Cloudy
11:50 AM 41.0 °F 32.2 °F 32.0 °F 70% 29.59 in 6.2 mi SSW 18.4 mph - N/A   Mostly Cloudy
12:00 PM 41 °F - 34 °F 68% 29.64 in 31 mi SSW 11.2 mph - -   Partly Cloudy
12:20 PM 41.0 °F 32.2 °F 32.0 °F 70% 29.59 in 6.2 mi SSW 18.4 mph - N/A   Scattered Clouds
12:50 PM 42.8 °F 34.3 °F 32.0 °F 66% 29.59 in 6.2 mi SSW 19.6 mph - N/A   Mostly Cloudy
1:00 PM 43 °F - 34 °F 61% 29.63 in 31 mi SW 13.4 mph - -   Partly Cloudy
1:20 PM 41.0 °F 33.1 °F 32.0 °F 70% 29.59 in 6.2 mi SW 15.0 mph - N/A   Scattered Clouds
1:50 PM 42.8 °F 35.4 °F 32.0 °F 66% 29.62 in 6.2 mi SSW 15.0 mph - N/A   Scattered Clouds
2:00 PM 43 °F - 34 °F 60% 29.65 in 40 mi SSW 8.9 mph - -   Partly Cloudy
2:20 PM 42.8 °F 36.6 °F 32.0 °F 66% 29.62 in 6.2 mi SSW 11.5 mph - N/A   Mostly Cloudy
2:50 PM 44.6 °F 38.4 °F 30.2 °F 57% 29.59 in 6.2 mi SSW 12.7 mph 24.2 mph N/A   Mostly Cloudy
3:00 PM 46 °F - 33 °F 49% 29.63 in 40 mi SSW 8.9 mph - -   Partly Cloudy
3:20 PM 42.8 °F 36.2 °F 30.2 °F 61% 29.62 in 6.2 mi SSW 12.7 mph - N/A   Scattered Clouds
3:50 PM 44.6 °F 38.1 °F 30.2 °F 57% 29.62 in 6.2 mi SSW 13.8 mph - N/A   Scattered Clouds
4:20 PM 42.8 °F 37.0 °F 30.2 °F 61% 29.62 in 6.2 mi SSW 10.4 mph - N/A   Mostly Cloudy
4:50 PM 41.0 °F 35.8 °F 30.2 °F 65% 29.59 in 6.2 mi South 8.1 mph - N/A   Mostly Cloudy
5:00 PM 43 °F - 33 °F 57% 29.63 in 37 mi South 8.9 mph - - Rain Light Rain
5:20 PM 41.0 °F 38.0 °F 30.2 °F 65% 29.59 in - South 4.6 mph - N/A   Clear
5:50 PM 39.2 °F 35.9 °F 30.2 °F 70% 29.59 in - SSE 4.6 mph - N/A   Clear
6:00 PM 41 °F - 33 °F 63% 29.63 in 37 mi SSE 6.7 mph - -   Overcast
6:20 PM 39.2 °F 34.2 °F 30.2 °F 70% 29.59 in 6.2 mi SE 6.9 mph - N/A   Unknown
6:50 PM 41.0 °F 35.8 °F 32.0 °F 70% 29.59 in 6.2 mi SSE 8.1 mph - N/A   Unknown
7:00 PM 42 °F - 34 °F 64% 29.62 in 34 mi South 6.7 mph - -   Partly Cloudy
7:20 PM 41.0 °F 35.2 °F 32.0 °F 70% 29.56 in 6.2 mi SSE 9.2 mph - N/A Rain Light Rain
7:50 PM 41.0 °F 34.3 °F 33.8 °F 76% 29.56 in 6.2 mi SSE 11.5 mph - N/A Rain Light Rain
8:00 PM 42 °F - 36 °F 73% 29.60 in 7 mi South 11.2 mph - - Rain Light Rain
8:20 PM 41.0 °F 34.3 °F 35.6 °F 81% 29.56 in 6.2 mi South 11.5 mph - N/A Rain Rain
8:50 PM 39.2 °F 30.8 °F 35.6 °F 87% 29.56 in 5.6 mi South 15.0 mph - N/A Rain Rain
9:00 PM 40 °F - 37 °F 86% 29.62 in 5 mi South 13.4 mph - - Rain Rain
9:20 PM 39.2 °F 30.8 °F 35.6 °F 87% 29.56 in 3.1 mi South 15.0 mph - N/A Rain Rain
9:50 PM 39.2 °F 33.0 °F 35.6 °F 87% 29.53 in 5.6 mi SSE 9.2 mph - N/A Rain Rain
10:20 PM 41.0 °F 33.9 °F 39.2 °F 93% 29.53 in 5.0 mi South 12.7 mph - N/A Rain Rain
10:50 PM 42.8 °F 34.0 °F 39.2 °F 87% 29.53 in 6.2 mi SSW 20.7 mph - N/A Rain Rain
11:00 PM 43 °F - 41 °F 88% 29.57 in 3 mi SSW 15.7 mph - - Rain Rain
11:20 PM 42.8 °F 35.1 °F 39.2 °F 87% 29.53 in 6.2 mi SSW 16.1 mph - N/A Rain Light Rain Showers
11:50 PM 42.8 °F 34.5 °F 39.2 °F 87% 29.53 in 6.2 mi SSW 18.4 mph - N/A   Mostly Cloudy